GW0349 Weather Reports


time (UTC)temp
C
wind
direction
speed
KPH
gust
KPH
rain 1hr
cm
rain 24hr
cm
rain mn
cm
humidity
%
barometer
mb
20260504204634 24 211 14.5 24.1 0.00 0.00 0.00 35 1013.4
20260504203056 25 225 12.9 25.7 0.00 0.00 0.00 35 1013.4
20260504201559 24 235 8.0 14.5 0.00 0.00 0.00 35 1013.7
20260504194556 24 197 12.9 20.9 0.00 0.00 0.00 36 1014.0
20260504193055 24 166 8.0 17.7 0.00 0.00 0.00 38 1014.2
20260504191554 23 192 12.9 20.9 0.00 0.00 0.00 38 1014.3
20260504190101 23 188 9.7 20.9 0.00 0.00 0.00 41 1014.5
20260504184604 23 241 6.4 22.5 0.00 0.00 0.00 40 1014.5
20260504183059 23 201 8.0 16.1 0.00 0.00 0.00 39 1014.9
20260504181600 22 215 4.8 16.1 0.00 0.00 0.00 41 1015.1
20260504180053 22 0 3.2 17.7 0.00 0.00 0.00 40 1015.1
20260504174557 22 188 9.7 14.5 0.00 0.00 0.00 40 1015.0
20260504173056 22 258 1.6 17.7 0.00 0.00 0.00 40 1015.2
20260504171557 21 0 3.2 14.5 0.00 0.00 0.00 40 1015.4
20260504081600 6 0 0.0 0.0 0.00 0.00 0.00 87 1016.2
20260504044549 11 310 1.6 6.4 0.00 0.00 0.00 67 1016.4
20260504043053 12 222 1.6 6.4 0.00 0.00 0.00 66 1016.1
20260504041551 12 233 3.2 6.4 0.00 0.00 0.00 65 1016.2
20260504040054 12 254 0.0 3.2 0.00 0.00 0.00 64 1016.3
20260504034607 12 0 0.0 3.2 0.00 0.00 0.00 63 1016.3
20260504033051 12 234 1.6 4.8 0.00 0.00 0.00 61 1016.5
20260504031550 13 192 0.0 1.6 0.00 0.00 0.00 61 1016.4
20260504030052 13 0 0.0 0.0 0.00 0.00 0.00 60 1016.4
20260504024554 13 0 0.0 0.0 0.00 0.00 0.00 58 1016.5
20260504023055 13 0 0.0 1.6 0.00 0.00 0.00 55 1016.4
20260504021554 14 174 0.0 3.2 0.00 0.00 0.00 54 1016.3
20260504020053 14 217 0.0 4.8 0.00 0.00 0.00 53 1015.9
20260504014602 14 148 1.6 4.8 0.00 0.00 0.00 52 1015.7
20260504013053 15 136 1.6 3.2 0.00 0.00 0.00 51 1015.6
20260504011558 15 218 1.6 4.8 0.00 0.00 0.00 47 1015.6
20260504010057 15 183 0.0 3.2 0.00 0.00 0.00 47 1015.3
20260504004551 16 159 0.0 6.4 0.00 0.00 0.00 45 1015.2
20260504003053 16 138 1.6 4.8 0.00 0.00 0.00 43 1015.2
20260504001554 17 165 0.0 4.8 0.00 0.00 0.00 40 1015.1
20260504000056 17 202 1.6 8.0 0.00 0.00 0.00 38 1015.0
20260503234553 18 215 4.8 11.3 0.00 0.00 0.00 35 1015.0
20260503233054 18 211 4.8 14.5 0.00 0.00 0.00 35 1014.8
20260503231550 19 236 6.4 12.9 0.00 0.00 0.00 33 1014.7
20260503230052 19 232 6.4 17.7 0.00 0.00 0.00 34 1014.9
20260503224553 19 232 8.0 14.5 0.00 0.00 0.00 34 1015.0
20260503223053 19 186 8.0 16.1 0.00 0.00 0.00 35 1015.0
20260503221553 20 229 4.8 12.9 0.00 0.00 0.00 35 1015.0
20260503220054 19 206 8.0 17.7 0.00 0.00 0.00 36 1015.2
20260503214552 19 185 8.0 17.7 0.00 0.00 0.00 35 1015.4
20260503213107 19 171 6.4 17.7 0.00 0.00 0.00 36 1015.6
20260503211554 19 184 9.7 19.3 0.00 0.00 0.00 33 1015.8